This is the latest recevied weather packets stored in our database for station/object DM4XI-13. If no packets are shown the sender has not sent any weather packets the latest 10 day(s).
| Time | Temp. | Humidity | Pressure | Rain* | Wind** | Luminosity | Snow |
|---|---|---|---|---|---|---|---|
| 1777973918 | 22.78° C | 44% | 1005.7 hPa | 0 mm | 0.45 m/s, 149° | 477 W/m² | - |
| 1777973857 | 22.78° C | 47% | 1005.5 hPa | 0 mm | 0.45 m/s, 163° | 419 W/m² | - |
| 1777973796 | 22.78° C | 45% | 1005.6 hPa | 0 mm | 0.45 m/s, 165° | 477 W/m² | - |
| 1777973735 | 22.78° C | 46% | 1005.8 hPa | 0 mm | 0.45 m/s, 178° | 505 W/m² | - |
| 1777973674 | 22.78° C | 45% | 1005.8 hPa | 0 mm | 0.89 m/s, 188° | 569 W/m² | - |
| 1777973613 | 22.78° C | 45% | 1005.7 hPa | 0 mm | 1.34 m/s, 152° | 506 W/m² | - |
| 1777973552 | 22.78° C | 46% | 1005.7 hPa | 0 mm | 0.89 m/s, 178° | 558 W/m² | - |
| 1777973491 | 22.78° C | 45% | 1005.8 hPa | 0 mm | 0.89 m/s, 180° | 568 W/m² | - |
| 1777973430 | 22.78° C | 45% | 1005.7 hPa | 0 mm | 0.89 m/s, 186° | 569 W/m² | - |
| 1777973369 | 22.78° C | 44% | 1005.7 hPa | 0 mm | 1.79 m/s, 139° | 555 W/m² | - |
| 1777973308 | 23.33° C | 46% | 1005.8 hPa | 0 mm | 0.89 m/s, 180° | 543 W/m² | - |
| 1777973247 | 23.33° C | 45% | 1005.7 hPa | 0 mm | 0.89 m/s, 171° | 529 W/m² | - |
| 1777973186 | 23.33° C | 44% | 1005.6 hPa | 0 mm | 0 m/s | 487 W/m² | - |
| 1777973125 | 23.33° C | 44% | 1005.7 hPa | 0 mm | 0.89 m/s, 112° | 477 W/m² | - |
| 1777973064 | 23.33° C | 45% | 1005.8 hPa | 0 mm | 0.89 m/s, 170° | 424 W/m² | - |
| 1777973003 | 23.33° C | 46% | 1005.8 hPa | 0 mm | 0.45 m/s, 192° | 417 W/m² | - |
| 1777972942 | 23.33° C | 44% | 1005.8 hPa | 0 mm | 0 m/s | 420 W/m² | - |
| 1777972881 | 23.33° C | 45% | 1005.9 hPa | 0 mm | 0.45 m/s, 165° | 410 W/m² | - |
| 1777972820 | 23.33° C | 46% | 1005.8 hPa | 0 mm | 0 m/s | 412 W/m² | - |
| 1777972759 | 23.33° C | 46% | 1005.8 hPa | 0 mm | 0 m/s | 414 W/m² | - |
| 1777972698 | 22.78° C | 44% | 1005.9 hPa | 0 mm | 0.45 m/s, 13° | 413 W/m² | - |
| 1777972637 | 22.78° C | 45% | 1005.8 hPa | 0 mm | 0.45 m/s, 358° | 424 W/m² | - |
| 1777972576 | 22.78° C | 44% | 1005.6 hPa | 0 mm | 0 m/s | 444 W/m² | - |
| 1777972515 | 22.78° C | 45% | 1005.8 hPa | 0 mm | 0.89 m/s, 283° | 516 W/m² | - |
| 1777972454 | 22.78° C | 45% | 1005.9 hPa | 0 mm | 0 m/s | 517 W/m² | - |
* Rain latest hour (hover to see other rain measurements)
** Current wind speed in m/s (hover to see current wind gust speed)